Regional Weather Roundup
Issued by NWS

Home | Current Version | Previous Version | Graphics & Text | Print | Product List | Glossary On
Versions: 1 2 3 4 5 6 7 8 9 10 11 12 13 14 15 16 17 18 19 20 21 22 23 24 25 26 27 28 29 30 31 32 33 34 35 36 37 38 39 40 41 42 43 44 45 46 47 48 49 50
000
ASUS43 KIND 291809
RWRIN

WEATHER ROUNDUP FOR INDIANA
NATIONAL WEATHER SERVICE INDIANAPOLIS IN
200 PM EDT SUN MAR 29 2015

NOTE: "FAIR" INDICATES FEW OR NO CLOUDS BELOW 12,000 FEET WITH NO
SIGNIFICANT WEATHER AND/OR OBSTRUCTIONS TO VISIBILITY.

* - STATION DOES NOT REPORT WEATHER SUCH AS PRECIPITATION OR FOG.

+ - STATION NOT QUALITY CONTROLLED BY THE NATIONAL WEATHER SERVICE.
    USE DATA WITH CAUTION...ESPECIALLY DEWPOINT AND RELATIVE
    HUMIDITY OBSERVATIONS.

INZ001>003-010>013-019-020-291900-
NORTHWEST INDIANA

CITY           SKY/WX    TMP DP  RH WIND       PRES   REMARKS
GARY /AIRPORT/ DRIZZLE   37  23  56 S20G36    29.93F
KNOX *+          N/A     41  -6  13 S23G30    29.98F
LA PORTE +     LGT RAIN  39  22  50 S17G26    29.97F
6HR MIN TEMP:  29; 6HR MAX TEMP:  42;

MICHIGAN CITY+ LGT RAIN  36  19  51 S16G22    29.94F
MONTICELLO +   CLOUDY    42  16  34 S14G25    30.03F
6HR MIN TEMP:  28; 6HR MAX TEMP:  43;

RENSSELAER +   RAIN      37  28  70 S18G25    29.98F
VALPARAISO     LGT RAIN  37  24  59 S20G28    29.95F
6HR MIN TEMP:  27; 6HR MAX TEMP:  39; 6HR PCP: TRACE;


$$

LMZ046-743>745-291900-
SOUTHERN LAKE MICHIGAN

STATION/POSITION TIME  TEMP WIND        PRES
                       AIR  DIR/SP/G
                 (UTC) (F)  (DEG/KT/KT) (MB)
BURNS HARBOR     1800   37  180/ 18/ 31 1013.9S
MICHIGAN CITY    1800   37  160/ 20/ 29   N/A

$$

INZ004-005-014>016-021>024-291900-
NORTH CENTRAL INDIANA

CITY           SKY/WX    TMP DP  RH WIND       PRES   REMARKS
ELKHART        CLOUDY    41  10  28 S18G29    30.00F
GOSHEN         CLOUDY    42  16  34 S24G32    30.01F
6HR MIN TEMP:  27; 6HR MAX TEMP:  42;

LOGANSPORT +   CLOUDY    41  21  45 S22       30.06F
PERU/GRISSOM   CLOUDY    44  19  36 S22G29    30.05F
6HR MIN TEMP:  27; 6HR MAX TEMP:  44;

ROCHESTER +    CLOUDY    45  18  33 S20G30    30.04F
SOUTH BEND     CLOUDY    41  13  31 S23G36    29.98F
6HR MIN TEMP:  29; 6HR MAX TEMP:  44;

WARSAW +       CLOUDY    41  19  42 S13G20    30.04F

$$

INZ006>009-017-018-025>027-291900-
NORTHEAST INDIANA

CITY           SKY/WX    TMP DP  RH WIND       PRES   REMARKS
ANGOLA *+      SUNNY     43  25  49 S20       30.03F
AUBURN +       CLOUDY    41  18  38 S13G22    30.07F
FORT WAYNE     CLOUDY    43  21  41 S25       30.09F
6HR MIN TEMP:  25; 6HR MAX TEMP:  43;

HUNTINGTON +   PTSUNNY   42  12  29 S17G26    30.07F
6HR MIN TEMP:  26; 6HR MAX TEMP:  42;


$$

INZ028-029-035-036-043>045-051>053-291900-
WEST CENTRAL INDIANA

CITY           SKY/WX    TMP DP  RH WIND       PRES   REMARKS
CRAWFORDSVL +  CLOUDY    40  11  30 S23G32    30.08F
6HR MIN TEMP:  25; 6HR MAX TEMP:  41;

GREENCASTLE +  CLOUDY    43   3  19 S16G23    30.11F
LAFAYETTE      CLOUDY    41  16  36 S18G26    30.05F
6HR MIN TEMP:  28; 6HR MAX TEMP:  43;

TERRE HAUTE    CLOUDY    44  23  43 S20G26    30.10F
6HR MIN TEMP:  27; 6HR MAX TEMP:  45;


$$

INZ030>032-037>040-046>048-054>057-064-065-291900-
CENTRAL INDIANA

CITY           SKY/WX    TMP DP  RH WIND       PRES   REMARKS
CP ATTERBURY + PTSUNNY   46  18  31 S13       30.17F
COLUMBUS       SUNNY     45   9  23 S15       30.18F
FRANKFORT +    CLOUDY    42  22  44 SE14G23   30.09F
6HR MIN TEMP:  27; 6HR MAX TEMP:  44;

GREENWOOD *+   PTSUNNY   45  14  29 S20G25    30.14F
INDIANAPOLIS   CLOUDY    46  11  24 S21G28    30.09F
6HR MIN TEMP:  25; 6HR MAX TEMP:  46;

-EAGLE CREEK   CLOUDY    45  11  25 S17G26    30.09F
6HR MIN TEMP:  26; 6HR MAX TEMP:  46;

KOKOMO *+        N/A     43  21  42 S20G26    30.07F
6HR MIN TEMP:  27; 6HR MAX TEMP:  43;

MARION +       PTSUNNY   42  18  38 S22G31    30.10F
MT COMFORT *+  PTSUNNY   43   7  22 S21G26    30.13F
SHELBYVILLE    MOSUNNY   45  20  36 S21       30.15F
6HR MIN TEMP:  28; 6HR MAX TEMP:  45;

ZIONSVILLE +   CLOUDY    44  17  34 S15G25    30.09F
6HR MIN TEMP:  27; 6HR MAX TEMP:  45;


$$

INZ033-034-041-042-049-050-058-059-291900-
EAST CENTRAL INDIANA

CITY           SKY/WX    TMP DP  RH WIND       PRES   REMARKS
MUNCIE         PTSUNNY   43  16  33 S21G31    30.11F
6HR MIN TEMP:  26; 6HR MAX TEMP:  44;


$$

INZ060-061-067>069-081>083-085>088-291900-
SOUTHWEST INDIANA

CITY           SKY/WX    TMP DP  RH WIND       PRES   REMARKS
EVANSVILLE     SUNNY     53  20  27 SW17G24   30.18F
6HR MIN TEMP:  32; 6HR MAX TEMP:  53;

HUNTINGBURG *+ SUNNY     50  21  32 S17       30.20F
6HR MIN TEMP:  28; 6HR MAX TEMP:  50;

WASHINGTON +   SUNNY     49  20  30 S20       30.17F
6HR MIN TEMP:  29; 6HR MAX TEMP:  49;


$$

INZ062-063-066-070>080-084-089>092-291900-
SOUTH CENTRAL AND SOUTHEAST INDIANA

CITY           SKY/WX    TMP DP  RH WIND       PRES   REMARKS
BEDFORD +      MOSUNNY   50  10  20 SE10G20   30.17
BLOOMINGTON    PTSUNNY   48  15  26 S17G25    30.13F
6HR MIN TEMP:  24; 6HR MAX TEMP:  49;

NORTH VERNON + SUNNY     46  14  27 S15G23    30.20F
SEYMOUR +      MOSUNNY   50  23  34 SE14G21   30.19F

$$



USA.gov is the U.S. government's official web portal to all federal, state and local government web resources and services.